ICT,Max TemperatureF,Mean TemperatureF,Min TemperatureF,Max Dew PointF,MeanDew PointF,Min DewpointF,Max Humidity, Mean Humidity, Min Humidity, Max Sea Level PressureIn, Mean Sea Level PressureIn, Min Sea Level PressureIn, Max VisibilityMiles, Mean VisibilityMiles, Min VisibilityMiles, Max Wind SpeedMPH, Mean Wind SpeedMPH, Max Gust SpeedMPH,PrecipitationIn, CloudCover, Events, WindDirDegrees
2013-3-1,95,77,58,63,57,52,83,50,22,29.92,29.84,29.72,5,3,2,4,1,,0.00,1,,340
2013-3-2,98,80,61,70,62,57,88,51,25,29.98,29.88,29.75,5,3,2,5,1,,0.00,0,,205
2013-3-3,99,84,69,69,65,59,88,54,27,29.98,29.88,29.76,6,4,1,7,1,,0.00,2,,160
2013-3-4,92,80,69,71,67,64,83,63,36,30.04,29.95,29.86,6,4,3,8,2,,0.00,3,Thunderstorm,227
2013-3-5,94,82,69,70,65,57,94,62,32,30.09,29.99,29.84,7,5,2,7,3,,0.16,3,Rain-Thunderstorm,258
2013-3-6,96,80,66,70,64,57,88,53,28,30.04,29.94,29.81,7,6,4,7,1,,0.00,1,,-1
2013-3-7,96,82,70,70,64,59,86,52,30,30.04,29.93,29.83,9,6,4,8,2,,0.00,3,,208
2013-3-8,93,82,70,71,66,61,86,57,34,29.98,29.91,29.78,7,5,3,6,1,,T,2,Rain-Thunderstorm,245
2013-3-9,96,79,65,66,55,39,88,46,16,29.95,29.86,29.74,7,5,2,7,2,,0.00,1,,332
2013-3-10,95,76,58,59,50,37,82,41,14,29.95,29.87,29.75,6,5,4,7,2,,0.00,0,,-1
2013-3-11,94,76,58,59,48,32,82,41,11,29.98,29.87,29.75,6,4,2,8,2,,0.00,1,,274
2013-3-12,94,76,57,58,51,43,82,43,17,29.98,29.87,29.74,5,4,2,6,2,,0.00,0,,130
2013-3-13,96,78,60,59,53,41,83,42,15,30.01,29.88,29.75,4,2,1,5,1,,0.00,0,,205
2013-3-14,96,78,60,61,56,50,82,47,22,30.01,29.92,29.78,2,2,2,6,1,,0.00,0,,290
2013-3-15,97,80,62,63,57,52,82,44,21,30.04,29.92,29.81,3,2,1,7,1,,0.00,0,,142
2013-3-16,98,80,62,64,57,50,86,46,20,30.06,29.94,29.80,2,2,1,6,2,,0.00,0,,182
2013-3-17,99,81,63,62,57,48,83,43,18,29.98,29.85,29.69,3,2,1,5,1,,0.00,0,,110
2013-3-18,100,82,63,62,50,36,83,35,12,29.89,29.76,29.64,5,3,1,7,2,,0.00,0,,210
2013-3-19,98,81,64,61,49,34,73,35,11,29.86,29.77,29.67,6,4,1,9,2,,0.00,0,,245
2013-3-20,96,77,58,61,48,34,69,38,11,29.95,29.85,29.72,2,1,1,6,1,,0.00,0,,160
2013-3-21,95,76,58,59,51,39,92,42,14,29.92,29.81,29.67,2,1,1,5,1,,0.00,0,,130
2013-3-22,98,77,56,57,48,37,82,38,13,29.92,29.79,29.66,2,1,1,7,2,,0.00,0,,256
2013-3-23,98,78,59,60,49,36,77,35,12,29.92,29.81,29.70,2,1,1,71,4,,0.00,0,,195
2013-3-24,97,79,61,60,49,14,75,37,6,29.95,29.79,29.64,2,1,1,6,1,,0.00,0,,-1
2013-3-25,100,80,61,66,55,43,81,41,14,29.86,29.74,29.59,2,1,1,4,1,,0.00,0,,-1
2013-3-26,100,83,66,67,57,43,76,40,15,29.86,29.74,29.62,2,1,1,8,1,,0.00,0,,112
2013-3-27,102,84,67,67,57,45,78,38,14,29.86,29.75,29.62,3,2,1,6,2,,0.00,0,,250
2013-3-28,102,84,66,66,57,50,68,37,17,29.89,29.76,29.61,3,1,1,5,2,,0.00,0,,247
2013-3-29,102,86,70,66,60,46,72,38,16,29.86,29.73,29.61,3,2,1,7,2,,T,1,Rain-Thunderstorm,275
2013-3-30,102,86,73,71,65,57,74,44,24,29.83,29.70,29.57,4,2,1,6,2,,0.00,0,,135
2013-3-31,100,86,73,70,67,61,78,49,30,29.86,29.76,29.65,2,2,1,5,2,,0.00,1,,264